Location: Newark
(50.5930°N, 3.6720°W)
Time: 11:11:13
(UTC+00:00)

X-37B - Visible Passes

Search period start: 20 September 2020 00:00
Search period end: 30 September 2020 00:00
Orbit: 386 x 387 km, 45.0° (Epoch: 18 September)

Date Brightness Start Highest point End Pass type
(mag) Time Alt. Az. Time Alt. Az. Time Alt. Az.
20 Sep 1.9 04:37:50 22° SW 04:38:45 26° S 04:41:30 10° SE visible
21 Sep 2.9 03:42:02 18° SE 03:42:02 18° SE 03:43:10 10° ESE visible
21 Sep 2.5 05:14:19 10° WSW 05:16:24 17° SSW 05:18:33 10° SSE visible
22 Sep 2.3 04:18:37 21° S 04:18:37 21° S 04:20:35 10° SE visible
23 Sep 2.8 04:55:19 12° SSW 04:55:36 12° SSW 04:56:54 10° S visible
